Miscellaneous Local Product
Issued by NWS Hastings, NE

Home | Current Version | Previous Version | Graphics & Text | Print | Product List | Glossary On
Versions: 1 2 3 4 5 6 7 8 9 10 11 12 13 14 15 16 17 18 19 20 21 22 23 24 25 26 27 28 29 30 31 32 33 34 35 36 37 38 39 40 41 42 43 44 45 46 47 48 49 50
000
AXUS43 KGID 290502
MISGRI

GID CWA HOURLY WEATHER ROUNDUP
NATIONAL WEATHER SERVICE HASTINGS NE
1200 AM CDT THU SEP 29 2016

NOTE: "FAIR" INDICATES FEW OR NO CLOUDS BELOW 12,000 FEET WITH NO
SIGNIFICANT WEATHER AND/OR OBSTRUCTIONS TO VISIBILITY.

...SOUTH CENTRAL NEBRASKA...

CITY           SKY/WX    TMP DP  RH WIND       PRES   REMARKS
GRAND ISLAND   CLEAR     46  41  82 E5        30.37R
HASTINGS       CLEAR     50  42  74 E7        30.36R
KEARNEY        CLEAR     46  39  76 NE6       30.35S
ORD            LGT RAIN  44  39  82 CALM      30.36R
YORK           CLEAR     45  43  93 NE5       30.36S
AURORA         CLEAR     47  44  90 NE3       30.36S
LEXINGTON      CLEAR     48  42  77 CALM      30.37R
HOLDREGE       CLEAR     47  40  75 CALM      30.36R
HEBRON         CLEAR     47  43  85 CALM      30.35R

...NEBRASKA PANHANDLE...

CITY           SKY/WX    TMP DP  RH WIND       PRES   REMARKS
CHADRON        CLEAR     60  41  49 SE6       30.33R
ALLIANCE       CLEAR     49  41  74 SE5       30.36R
SCOTTSBLUFF    CLEAR     59  43  55 E13       30.34R
SIDNEY         CLEAR     53  39  59 SE10      30.39R

...WESTERN AND NORTH CENTRAL NEBRASKA...

CITY           SKY/WX    TMP DP  RH WIND       PRES   REMARKS
VALENTINE      CLEAR     50  41  71 CALM      30.38R
AINSWORTH      CLEAR     46  42  86 SE5       30.38R
ONEILL         CLOUDY    44  40  86 E7        30.39R
BROKEN BOW     CLEAR     49  42  77 CALM      30.36R
IMPERIAL       CLEAR     52  35  52 E8        30.36R
NORTH PLATTE   CLEAR     45  36  70 E5        30.36R
MCCOOK         CLEAR     50  37  61 NE7       30.35R

...EASTERN NEBRASKA...

CITY           SKY/WX    TMP DP  RH WIND       PRES   REMARKS
NORFOLK        CLOUDY    46  42  86 CALM      30.37R
SO SIOUX CITY  CLEAR     47  45  93 NW5       30.37R
TEKAMAH        CLEAR     47  44  90 N6        30.35R
COLUMBUS       CLEAR     46  36  66 CALM      30.37S
ALBION         CLOUDY    46  41  83 CALM      30.38R
OMAHA EPPLEY   CLEAR     50  45  83 N7        30.34R
OFFUTT AFB     CLEAR     47  47  99 N2        30.33R
MILLARD        CLEAR     53  47  83 NW3       30.34R
LINCOLN        CLEAR     48  45  89 N7        30.36R
NEBRASKA CITY  CLEAR     51  45  81 N6        30.33R
BEATRICE       CLEAR     49  46  88 NE3       30.34R
FALLS CITY     CLEAR     53  49  86 NW5       30.31R

...NORTHERN KANSAS...

CITY           SKY/WX    TMP DP  RH WIND       PRES   REMARKS
GOODLAND       CLEAR     51  41  68 SE7       30.36R
HILL CITY      CLEAR     47  43  86 NE5       30.35R
NORTON         CLEAR     48  36  61 CALM      30.34R
PHILLIPSBURG   CLEAR     54  43  66 NE5       30.35R
SMITH CENTER   CLEAR     50  43  76 NE9       30.35R
HAYS           CLEAR     52  37  58 NE3       30.33R
RUSSELL        CLEAR     53  45  74 E8        30.32R
CONCORDIA      CLEAR     51  45  79 NE6       30.33R
SALINA         CLEAR     58  46  64 NE5       30.32R
TOPEKA         MOCLDY    52  48  86 W3        30.30R



USA.gov is the U.S. government's official web portal to all federal, state and local government web resources and services.